Find Starlink 32028

NORAD ID: 60095 Int'l Des: 2024-117 Owner: SPXS Country: US Constellation: starlink operational
LEOCIRCULAR

現在のビュー

3D地球を読み込み中...

About Starlink 32028

Starlink 32028 (NORAD 60095) is a starlink constellation satellite (v2 mini) launched Jun 23, 2024 by SPXS of US. It operates in LEO, CIRCULAR orbit with a mass of 730.00 kg.

次回通過

Passes for default location (London). Set your location on the main map for personalized predictions.

高度履歴

Loading altitude history...

軌道要素

1 60095U 24117E 26265.08242713 .00006217 00000-0 19476-3 0 9999
2 60095 53.1601 202.1668 0001634 132.6457 227.4683 15.34435661126992
Epoch: Sep 22, 2026 • Age: 10 hours

現在のステータス

高度 462.3 km
遠地点 / 近地点 N/A
速度 7.64 km/s
衛星直下点 23.77°N, 179.58°E
打ち上げ日 Jun 23, 2024
運用期間 2.2 years
タイプ internet

技術仕様

分類 Payload
質量 730.00 kg
乾燥質量 700.00 kg
長さ 0.30 m
スパン 29.00 m
形状 ? Box + pan
製造者 SPXS
バスタイプ Starlink V2M
フェーズステータス In Orbit
所有者/国 SPXS/US

Most Searched